Погода в Починоке

Погода в Починоке : погода сейчас, прогноз погоды и архив. Всё, что Вы хотите узнать о погоде в Починоке!

Поиск расширенной информации на нашем сайте:

Другие новости

Новости СМИ2

Главная страница сайта

Новости сайта

03.07.2017

Напоминаем, что на нашем специализированном сайте Метеоцентр.Азия вы можете получить высокодетализированные автоматические прогнозы погоды по пунктам России, СНГ и мира в авиационном формате (включающие направление и скорость ветра, видимость, явления погоды, количество и форму облачности, нижнюю и верхнюю границу облачности).

Рекомендуем: в классическом стиле диваны интернет магазин

Погода в Починоке - сегодня

Время (UTC), дата Ветер
(°,м/с) 
Видим.   Явления Облачность Т
(°С)
Тd
(°С)
f(%) Тe
(°С)
Pmin
(гПа)
dP
(гПа)
Po
(мм)
O2
(г/м3)
Тmin Tmax R s Состояние
почвы
03 15.08.17 030 (СВ) 20000 м    4/0 средняя, верхняя 
[Ac trans|Ci fib]
+14 +12.3 89 +18  1024.2  0.7  750  285  +14         
06 15.08.17 050 (СВ) 20000 м    ясно 
+18.4 +12.2 67 +23  1025.1  1.2  751  281  +14        влажная 
09 15.08.17 020 (С) 20000 м    3/3 1500 м 
[Cu hum]
+22.1 +9.5 45 +23  1025.2  0.2  751  278           
12 15.08.17 050 (СВ) 20000 м    4/3 1000 м средняя 
[Cu med, cong|Ac trans]
+23.4 +9.9 42 +24  1024.9  -0.2  751  277           
15 15.08.17 050 (СВ) 20000 м    6/4 1000 м средняя 
[Sc|Ac trans]
+22.9 +10 44 +24  1024.9  751  277           
21 15.08.17 060 (СВ) 20000 м    ясно 
+14.7 +11.1 79 +18  1026.5  0.4  752  285           
00 16.08.17 080 (В) 20000 м    8/0 средняя 
[Ac trans]
+12.8 +10 83 +15  1027  0.3  752  288           
03 16.08.17 090 (В) 20000 м    8/8 600 м средняя 
[Sc|Ac trans]
+12.3 +10 86 +14  1026.9  -0.1  752  288  +12.1         
06 16.08.17 100 (В) 20000 м    1/1 1000 м 
[Cu hum]
+18 +11.9 67 +23  1026.6  0.2  752  282  +12.1        влажная 
09 16.08.17 080 (В) 20000 м    6/4 1000 м средняя 
[Cu med, cong|Ac trans]
+22.8 +15 61 +31  1025.6  -0.6  752  276           
12 16.08.17 110 (В) 20000 м    9/8 600 м кучево-дожд., средняя 
[Cb cap|Ac trans]
+23.3 +13.9 56 +30  1025  -0.6  751  276           
15 16.08.17 140 (ЮВ) 20000 м    3/1 1000 м средняя, верхняя 
[Sc|Ac trans|Ci fib]
+24.1 +14.2 54 +31  1024.2  -0.7  751  275           
18 16.08.17 080 (В) 20000 м    3/0 средняя 
[Ac trans]
+18.3 +13.8 75 +27  1024.7  0.1  751  281    +24.6       
21 16.08.17 080 (В) 20000 м    ясно 
+15.6 +13.3 86 +22  1025.2  0.2  751  283           
00 17.08.17 080 (В) 10 км    ясно 
+14 +12.9 93 +20  1024.9  -0.4  750  285           
03 17.08.17 080 (В) 4000 м  дымка  3/0 верхняя 
[Ci fib]
+13.4 +12.3 93 +18  1024.7  -0.3  750  286  +13.2         
06 17.08.17 120 (ЮВ) 20000 м    5/0 верхняя 
[Ci sp]
+20.2 +15.8 76 +30  1024.6  0.5  751  278  +13.2        влажная 
09 17.08.17 110 (В) 20000 м    8/5 1000 м верхняя 
[Cu med, cong|Ci fib]
+25.3 +15.2 54 +34  1023.8  -0.3  750  274           
12 17.08.17 150 (ЮВ) 20000 м    8/5 1000 м верхняя 
[Cu med, cong|Ci fib]
+26.8 +15.2 49 +36  1022.9  -0.8  750  272           
15 17.08.17 140 (ЮВ) 20000 м    4/3 1000 м верхняя 
[Cu med, cong|Ci fib]
+26.5 +15.4 51 +36  1021.9  -0.9  749  272           
18 17.08.17 080 (В) 20000 м    4/0 верхняя 
[Ci fib]
+20.8 +16.6 77 +32  1022.5  0.1  749  277    +27.3       
21 17.08.17 110 (В) 10 км    ясно 
+18.1 +16.4 90 +31  1022.8  0.1  749  279           
00 18.08.17 090 (В) 10 км    ясно 
+16.4 +15.2 93 +27  1023  0.1  749  282           
03 18.08.17 110 (В) 10 км    8/3 1000 м верхняя 
[Sc|Ci fib]
+15.5 +14.5 94 +25  1023  0.1  749  283  +15.5         
06 18.08.17 150 (ЮВ) 20000 м    8/5 1000 м верхняя 
[Cu Sc|Ci fib]
+21.4 +14.8 66 +30  1023.1  0.6  750  277  +15.5        влажная 
Время (UTC), дата Ветер
(°,м/с) 
Видим.   Явления Облачность Т
(°С)
Тd
(°С)
f(%) Тe
(°С)
Pmin
(гПа)
dP
(гПа)
Po
(мм)
O2
(г/м3)
Тmin Tmax R s Состояние
почвы

Для получения пояснительной информации подведите курсор к названию столбца.

ПОГОДА в Починоке - архив

Всё, что Вы хотите узнать о погоде в Починоке - удобно и подробно!

Выберите нужную дату (начиная с 1 января 2015* года) и нажмите кнопку "Найти".
Будут отображены архивные сводки погоды по пункту Починок, начиная с указанной даты.


Отображать данные в формате CSV (для использования в таблицах Excel)


Внимание! Наш архив погоды предназначен исключительно для личного некоммерческого использования в познавательных целях. Если Вам необходимы официальные справки о состоянии погоды (для производственных, юридических, коммерческих и т.п. целей), обращайтесь в органы Росгидромета.

*Примечание: данная дата относится к архиву по метеостанциям СССР (Россия, СНГ, Балтия).
Архив по метеостанциям Зарубежной Европы и Азии (кроме Китая) хранится 10 дней, по другим регионам земного шара (Китай, Африка, Америка, Австралия, Океания) - 1 день.

Починок - район местоположения метеостанции


Название, широта, долгота, высота метеостанции:
Починок 54.4°ш. 32.4°д. 210 м над ур. моря [Российская Федерация]

Дополнительная информация

В oтличие oт бoльшинства пoгoдных сайтoв мы публикуем пoдрoбную метеoинфoрмацию в детальнoм прoфессиoнальнoм фoрмате.

Характеристики температуры и влажнoсти вoздуха измеряются на высoте 2 м в тени вдали oт зданий и деревьев.
Скoрoсть ветра измеряется на высoте 10 м (на урoвне рoста челoвека скoрoсть ветра ниже в 1.5-2 раза). Если метеoстанция нахoдится в гoрoде или в лесу, тo скoрoсть ветра занижена на 2-4 м/с пo сравнению с oткрытым местoм. Скoрoсть ветра над акватoриями крупных рек и oзёр, а также на вершинах хoлмoв на 2-5 м/с выше, чем в oбычных услoвиях.
Атмoсфернoе давление в разных тoчках местнoсти мoжет значительнo oтличаться oт давления на метеoстанции, в зависимoсти oт услoвий рельефа (при пoдъёме на 10 м давление пoнижается примернo на 1 мм рт.ст.).